Portada
METAR-TAF:

METAR-TAF

Aeroports :

Franklin County, Vermont, Estats Units d'Amèrica

latitud: 44-56-25N, longitud: 073-05-51W, altitud: 69 m

Observació

L'informe es va fer fa 25 minuts, a les 06:55 UTC
Vent calma
Temperatura -6°C
Humitat 93%
Pressió 1028 hPa
Visibilitat: 16.1 km
Cel clar

METAR: KFSO 310655Z AUTO 00000KT 10SM CLR M06/M07 A3036 RMK AO2 T10571073

Hora: 03:20 (07:20 UTC)


TAF: manca

Observacions i pronòstics meteorològics de més de 4000 aeroports (METAR i TAF).

Les estacions disponibles són els punts grocs i vermells al mapa.

Posi el ratolí al punt desitjat per veure el nom de l'estació.

Feu clic per veure les observacions i els pronòstics meteorològics.

Per canviar el mapa: feu clic els botons verds amb una creu de color negre per apropar; al botó verd amb un guió per allunyar la imatge; o en les fletxes verdes per a mapes adjacents.


METAR-TAF: